Time,TemperatureF,DewpointF,PressureIn,WindDirection,WindDirectionDegrees,WindSpeedMPH,WindSpeedGustMPH,Humidity,HourlyPrecipIn,Conditions,Clouds,dailyrainin,SoftwareType,DateUTC
2013-02-08 00:02:00,24.6,14.0,30.42,SW,222,0.0,-999.0,64,-99.99,,,0.00,weatherlink.com 1.10,2013-02-08 05:02:00,
2013-02-08 00:17:00,24.8,14.0,30.41,SW,216,0.0,-999.0,63,-99.99,,,0.00,weatherlink.com 1.10,2013-02-08 05:17:00,
2013-02-08 00:47:00,25.3,14.0,30.38,ENE,78,0.0,-999.0,63,-99.99,,,0.00,weatherlink.com 1.10,2013-02-08 05:47:00,
2013-02-08 01:02:00,25.3,14.0,30.39,East,96,0.0,-999.0,62,-99.99,,,0.00,weatherlink.com 1.10,2013-02-08 06:02:00,
2013-02-08 01:17:00,25.4,15.0,30.38,East,90,0.0,-999.0,64,-99.99,,,0.00,weatherlink.com 1.10,2013-02-08 06:17:00,
2013-02-08 01:32:00,25.4,15.0,30.37,East,96,0.0,-999.0,65,-99.99,,,0.00,weatherlink.com 1.10,2013-02-08 06:32:00,
2013-02-08 01:47:00,25.3,15.0,30.37,ENE,63,1.0,-999.0,66,-99.99,,,0.00,weatherlink.com 1.10,2013-02-08 06:47:00,
2013-02-08 02:02:00,25.2,15.0,30.38,East,86,0.0,-999.0,64,-99.99,,,0.00,weatherlink.com 1.10,2013-02-08 07:02:00,
2013-02-08 02:17:00,25.2,13.0,30.37,East,97,0.0,-999.0,59,-99.99,,,0.00,weatherlink.com 1.10,2013-02-08 07:17:00,
2013-02-08 02:32:00,25.2,12.0,30.36,ENE,77,0.0,-999.0,57,-99.99,,,0.00,weatherlink.com 1.10,2013-02-08 07:32:00,
2013-02-08 02:47:00,25.1,12.0,30.36,East,91,0.0,-999.0,59,-99.99,,,0.00,weatherlink.com 1.10,2013-02-08 07:47:00,
2013-02-08 03:02:00,25.0,13.0,30.35,ENE,77,0.0,-999.0,60,-99.99,,,0.00,weatherlink.com 1.10,2013-02-08 08:02:00,
2013-02-08 03:17:00,24.8,12.0,30.34,ENE,67,7.0,-999.0,58,-99.99,,,0.00,weatherlink.com 1.10,2013-02-08 08:17:00,
2013-02-08 03:32:00,24.8,12.0,30.33,East,87,0.0,-999.0,59,-99.99,,,0.00,weatherlink.com 1.10,2013-02-08 08:32:00,
2013-02-08 03:47:00,24.7,13.0,30.33,ENE,67,0.0,-999.0,61,-99.99,,,0.00,weatherlink.com 1.10,2013-02-08 08:47:00,
2013-02-08 04:02:00,24.7,14.0,30.32,East,95,0.0,-999.0,64,-99.99,,,0.00,weatherlink.com 1.10,2013-02-08 09:02:00,
2013-02-08 04:17:00,24.7,15.0,30.30,ENE,62,0.0,-999.0,67,-99.99,,,0.00,weatherlink.com 1.10,2013-02-08 09:17:00,
2013-02-08 04:32:00,24.8,16.0,30.30,ENE,64,3.0,-999.0,70,-99.99,,,0.00,weatherlink.com 1.10,2013-02-08 09:32:00,
2013-02-08 04:47:00,24.8,17.0,30.29,SSW,204,0.0,-999.0,71,-99.99,,,0.00,weatherlink.com 1.10,2013-02-08 09:47:00,
2013-02-08 05:02:00,24.9,17.0,30.30,ENE,66,0.0,-999.0,72,-99.99,,,0.00,weatherlink.com 1.10,2013-02-08 10:02:00,
2013-02-08 05:17:00,24.9,17.0,30.29,ENE,72,2.0,-999.0,73,-99.99,,,0.00,weatherlink.com 1.10,2013-02-08 10:17:00,
2013-02-08 05:32:00,25.0,18.0,30.28,ENE,70,0.0,-999.0,74,-99.99,,,0.00,weatherlink.com 1.10,2013-02-08 10:32:00,
2013-02-08 05:47:00,25.1,18.0,30.27,East,80,3.0,-999.0,75,-99.99,,,0.00,weatherlink.com 1.10,2013-02-08 10:47:00,
2013-02-08 06:02:00,25.2,19.0,30.27,NE,52,0.0,-999.0,76,-99.99,,,0.00,weatherlink.com 1.10,2013-02-08 11:02:00,
2013-02-08 06:17:00,25.4,19.0,30.26,ENE,73,0.0,-999.0,77,-99.99,,,0.00,weatherlink.com 1.10,2013-02-08 11:17:00,
2013-02-08 06:32:00,25.4,19.0,30.25,ENE,66,4.0,-999.0,77,-99.99,,,0.00,weatherlink.com 1.10,2013-02-08 11:32:00,
2013-02-08 06:47:00,25.5,20.0,30.25,ENE,62,0.0,-999.0,78,-99.99,,,0.00,weatherlink.com 1.10,2013-02-08 11:47:00,
2013-02-08 07:02:00,25.6,20.0,30.24,East,85,0.0,-999.0,78,-99.99,,,0.00,weatherlink.com 1.10,2013-02-08 12:02:00,
2013-02-08 07:17:00,25.8,20.0,30.23,ENE,58,4.0,-999.0,79,-99.99,,,0.00,weatherlink.com 1.10,2013-02-08 12:17:00,
2013-02-08 07:32:00,25.7,20.0,30.22,ENE,67,3.0,-999.0,79,-99.99,,,0.00,weatherlink.com 1.10,2013-02-08 12:32:00,
2013-02-08 07:47:00,25.4,20.0,30.22,NE,51,2.0,-999.0,79,-99.99,,,0.00,weatherlink.com 1.10,2013-02-08 12:47:00,
2013-02-08 08:02:00,25.3,20.0,30.22,ENE,63,1.0,-999.0,80,-99.99,,,0.00,weatherlink.com 1.10,2013-02-08 13:02:00,
2013-02-08 08:17:00,25.5,20.0,30.21,NE,45,4.0,-999.0,81,-99.99,,,0.00,weatherlink.com 1.10,2013-02-08 13:17:00,
2013-02-08 08:32:00,25.9,21.0,30.21,ENE,62,0.0,-999.0,82,-99.99,,,0.00,weatherlink.com 1.10,2013-02-08 13:32:00,
2013-02-08 08:47:00,26.1,22.0,30.20,ENE,78,3.0,-999.0,85,-99.99,,,0.00,weatherlink.com 1.10,2013-02-08 13:47:00,
2013-02-08 09:02:00,26.4,23.0,30.19,ENE,73,4.0,-999.0,86,-99.99,,,0.00,weatherlink.com 1.10,2013-02-08 14:02:00,
2013-02-08 09:17:00,26.9,23.0,30.18,ENE,77,3.0,-999.0,86,-99.99,,,0.00,weatherlink.com 1.10,2013-02-08 14:17:00,
2013-02-08 09:32:00,27.3,24.0,30.18,ENE,78,5.0,-999.0,86,-99.99,,,0.00,weatherlink.com 1.10,2013-02-08 14:32:00,
2013-02-08 09:47:00,27.5,24.0,30.16,ENE,70,7.0,-999.0,87,-99.99,,,0.00,weatherlink.com 1.10,2013-02-08 14:47:00,
2013-02-08 10:02:00,27.8,24.0,30.15,ENE,58,0.0,-999.0,87,-99.99,,,0.00,weatherlink.com 1.10,2013-02-08 15:02:00,
2013-02-08 10:17:00,27.9,25.0,30.14,ENE,58,0.0,-999.0,87,-99.99,,,0.00,weatherlink.com 1.10,2013-02-08 15:17:00,
2013-02-08 10:32:00,28.0,25.0,30.13,NNE,28,7.0,-999.0,88,-99.99,,,0.00,weatherlink.com 1.10,2013-02-08 15:32:00,
2013-02-08 10:47:00,28.0,25.0,30.12,East,79,0.0,-999.0,88,-99.99,,,0.00,weatherlink.com 1.10,2013-02-08 15:47:00,
2013-02-08 11:02:00,28.0,25.0,30.11,ENE,77,5.0,-999.0,88,-99.99,,,0.00,weatherlink.com 1.10,2013-02-08 16:02:00,
2013-02-08 11:17:00,28.1,25.0,30.10,ENE,75,6.0,-999.0,89,-99.99,,,0.00,weatherlink.com 1.10,2013-02-08 16:17:00,
2013-02-08 11:32:00,28.1,25.0,30.07,ENE,64,2.0,-999.0,89,-99.99,,,0.00,weatherlink.com 1.10,2013-02-08 16:32:00,
2013-02-08 11:47:00,28.1,26.0,30.06,ENE,66,5.0,-999.0,90,-99.99,,,0.00,weatherlink.com 1.10,2013-02-08 16:47:00,
2013-02-08 12:02:00,28.1,26.0,30.04,ENE,57,3.0,-999.0,90,-99.99,,,0.00,weatherlink.com 1.10,2013-02-08 17:02:00,
2013-02-08 12:17:00,28.2,26.0,30.03,ENE,66,3.0,-999.0,90,-99.99,,,0.00,weatherlink.com 1.10,2013-02-08 17:17:00,
2013-02-08 12:32:00,28.3,26.0,30.02,ENE,58,4.0,-999.0,90,-99.99,,,0.00,weatherlink.com 1.10,2013-02-08 17:32:00,
2013-02-08 12:47:00,28.4,26.0,30.01,ENE,63,3.0,-999.0,90,-99.99,,,0.00,weatherlink.com 1.10,2013-02-08 17:47:00,
2013-02-08 13:02:00,28.4,26.0,29.99,NE,52,5.0,-999.0,91,-99.99,,,0.00,weatherlink.com 1.10,2013-02-08 18:02:00,
2013-02-08 13:17:00,28.4,26.0,29.97,NE,54,6.0,-999.0,91,-99.99,,,0.00,weatherlink.com 1.10,2013-02-08 18:17:00,
2013-02-08 13:32:00,28.4,26.0,29.96,NE,44,4.0,-999.0,91,-99.99,,,0.00,weatherlink.com 1.10,2013-02-08 18:32:00,
2013-02-08 13:47:00,28.4,26.0,29.94,ESE,102,0.0,-999.0,91,-99.99,,,0.00,weatherlink.com 1.10,2013-02-08 18:47:00,
2013-02-08 14:02:00,28.5,26.0,29.93,NE,37,6.0,-999.0,91,-99.99,,,0.00,weatherlink.com 1.10,2013-02-08 19:02:00,
2013-02-08 14:17:00,28.6,26.0,29.92,NE,55,2.0,-999.0,91,-99.99,,,0.00,weatherlink.com 1.10,2013-02-08 19:17:00,
2013-02-08 14:32:00,28.7,26.0,29.90,ENE,66,6.0,-999.0,91,-99.99,,,0.00,weatherlink.com 1.10,2013-02-08 19:32:00,
2013-02-08 14:47:00,28.8,27.0,29.88,NE,50,4.0,-999.0,92,-99.99,,,0.00,weatherlink.com 1.10,2013-02-08 19:47:00,
2013-02-08 15:02:00,28.7,27.0,29.87,NE,38,7.0,-999.0,92,-99.99,,,0.00,weatherlink.com 1.10,2013-02-08 20:02:00,
2013-02-08 15:17:00,28.3,26.0,29.86,ENE,58,5.0,-999.0,92,-99.99,,,0.00,weatherlink.com 1.10,2013-02-08 20:17:00,
2013-02-08 15:32:00,28.1,26.0,29.84,NE,50,5.0,-999.0,92,-99.99,,,0.00,weatherlink.com 1.10,2013-02-08 20:32:00,
2013-02-08 15:47:00,27.8,26.0,29.83,NE,50,6.0,-999.0,92,-99.99,,,0.00,weatherlink.com 1.10,2013-02-08 20:47:00,
2013-02-08 16:02:00,27.8,26.0,29.82,ENE,62,7.0,-999.0,92,-99.99,,,0.00,weatherlink.com 1.10,2013-02-08 21:02:00,
2013-02-08 16:18:00,27.5,26.0,29.80,NE,47,6.0,-999.0,92,-99.99,,,0.00,weatherlink.com 1.10,2013-02-08 21:18:00,
2013-02-08 16:48:00,27.0,25.0,29.79,NE,47,10.0,-999.0,92,-99.99,,,0.00,weatherlink.com 1.10,2013-02-08 21:48:00,
2013-02-08 17:02:00,26.7,25.0,29.78,ENE,71,6.0,-999.0,91,-99.99,,,0.00,weatherlink.com 1.10,2013-02-08 22:02:00,
2013-02-08 17:17:00,26.5,25.0,29.77,East,83,16.0,-999.0,92,-99.99,,,0.00,weatherlink.com 1.10,2013-02-08 22:17:00,
2013-02-08 17:32:00,26.2,24.0,29.77,SSE,165,5.0,-999.0,91,-99.99,,,0.00,weatherlink.com 1.10,2013-02-08 22:32:00,
2013-02-08 17:47:00,26.0,24.0,29.76,ENE,63,5.0,-999.0,91,-99.99,,,0.00,weatherlink.com 1.10,2013-02-08 22:47:00,
2013-02-08 18:02:00,25.8,24.0,29.75,NNE,21,15.0,-999.0,91,-99.99,,,0.00,weatherlink.com 1.10,2013-02-08 23:02:00,
2013-02-08 18:17:00,25.5,23.0,29.75,NE,47,6.0,-999.0,91,-99.99,,,0.00,weatherlink.com 1.10,2013-02-08 23:17:00,
2013-02-08 18:32:00,25.1,23.0,29.73,NE,40,13.0,-999.0,91,-99.99,,,0.00,weatherlink.com 1.10,2013-02-08 23:32:00,
2013-02-08 18:48:00,24.9,23.0,29.72,NNE,26,15.0,-999.0,91,-99.99,,,0.00,weatherlink.com 1.10,2013-02-08 23:48:00,
2013-02-08 19:03:00,24.7,23.0,29.70,NE,47,12.0,-999.0,91,-99.99,,,0.00,weatherlink.com 1.10,2013-02-09 00:03:00,
2013-02-08 19:18:00,24.5,22.0,29.70,NE,50,19.0,-999.0,91,-99.99,,,0.00,weatherlink.com 1.10,2013-02-09 00:18:00,
2013-02-08 19:33:00,24.4,22.0,29.68,ENE,67,12.0,-999.0,91,-99.99,,,0.00,weatherlink.com 1.10,2013-02-09 00:33:00,
2013-02-08 19:48:00,24.3,22.0,29.67,NE,51,18.0,-999.0,91,-99.99,,,0.00,weatherlink.com 1.10,2013-02-09 00:48:00,
2013-02-08 20:02:00,24.4,22.0,29.66,South,170,5.0,-999.0,91,-99.99,,,0.00,weatherlink.com 1.10,2013-02-09 01:02:00,
2013-02-08 20:18:00,24.2,22.0,29.64,ENE,64,12.0,-999.0,91,-99.99,,,0.00,weatherlink.com 1.10,2013-02-09 01:18:00,
2013-02-08 20:32:00,24.0,22.0,29.64,NE,35,22.0,-999.0,91,-99.99,,,0.00,weatherlink.com 1.10,2013-02-09 01:32:00,
2013-02-08 20:47:00,23.8,22.0,29.64,East,99,6.0,-999.0,91,-99.99,,,0.00,weatherlink.com 1.10,2013-02-09 01:47:00,
2013-02-08 21:18:00,23.0,21.0,29.64,ENE,59,9.0,-999.0,91,-99.99,,,0.00,weatherlink.com 1.10,2013-02-09 02:18:00,
2013-02-08 21:32:00,22.9,21.0,29.63,NE,52,8.0,-999.0,91,-99.99,,,0.00,weatherlink.com 1.10,2013-02-09 02:32:00,
2013-02-08 21:48:00,22.8,21.0,29.62,ENE,69,12.0,-999.0,91,-99.99,,,0.00,weatherlink.com 1.10,2013-02-09 02:48:00,
2013-02-08 22:02:00,23.1,21.0,29.62,ENE,68,10.0,-999.0,91,-99.99,,,0.01,weatherlink.com 1.10,2013-02-09 03:02:00,
2013-02-08 22:18:00,23.6,21.0,29.65,ENE,66,22.0,-999.0,91,-99.99,,,0.01,weatherlink.com 1.10,2013-02-09 03:18:00,
2013-02-08 22:32:00,22.3,20.0,29.66,NE,39,14.0,-999.0,90,-99.99,,,0.01,weatherlink.com 1.10,2013-02-09 03:32:00,
2013-02-08 22:47:00,21.5,19.0,29.66,NE,35,12.0,-999.0,90,-99.99,,,0.01,weatherlink.com 1.10,2013-02-09 03:47:00,
2013-02-08 23:03:00,21.4,19.0,29.68,NE,40,9.0,-999.0,90,-99.99,,,0.01,weatherlink.com 1.10,2013-02-09 04:03:00,
2013-02-08 23:18:00,21.3,19.0,29.70,North,10,14.0,-999.0,90,-99.99,,,0.01,weatherlink.com 1.10,2013-02-09 04:18:00,
2013-02-08 23:32:00,21.1,19.0,29.71,NNE,33,9.0,-999.0,90,-99.99,,,0.01,weatherlink.com 1.10,2013-02-09 04:32:00,